{"data":{"norad_id":59606,"epoch":"2026-05-24T21:38:03.183072Z","epoch_age_seconds":80601,"freshness":"FRESH","line1":"1 59606U 24080F   26144.90142573  .00001257  00000+0  55187-4 0  9992","line2":"2 59606  43.0036 331.3603 0001543 283.5290  76.5390 15.27580417116148","mean_motion":15.27580417,"eccentricity":0.0001543,"inclination_deg":43.0036,"raan_deg":331.3603,"arg_perigee_deg":283.529,"mean_anomaly_deg":76.539,"bstar":5.5187e-5,"rev_number":11614,"period_min":94.266722980647,"perigee_km":481.98916656997,"apogee_km":484.10652821387,"semimajor_km":6861.1848473919,"source":"CELESTRAK","updated_at":"2026-05-25T13:38:19.008492Z"}}